Regional Weather Roundup
Issued by NWS

Home | Current Version | Previous Version | Graphics & Text | Print | Product List | Glossary On
Versions: 1 2 3 4 5 6 7 8 9 10 11 12 13 14 15 16 17 18 19 20 21 22 23 24 25 26 27 28 29 30 31 32 33 34 35 36 37 38 39 40 41 42 43 44 45 46 47 48 49 50
000
ASUS45 KBOU 200007
RWRCO

WEATHER ROUNDUP FOR COLORADO
NATIONAL WEATHER SERVICE DENVER/BOULDER CO
600 PM MDT SAT AUG 19 2017

NOTE: "FAIR" INDICATES FEW OR NO CLOUDS BELOW 12000 FEET WITH NO
SIGNIFICANT WEATHER AND/OR OBSTRUCTIONS TO VISIBILITY.

COZ001>005-013-030-031-200100-
...NORTHWEST COLORADO...

CITY           SKY/WX    TMP DP  RH WIND       PRES   REMARKS
CRAIG          FAIR      85  22  10 W15       30.11F
HAYDEN         FAIR      82  26  13 W10       30.16S
MEEKER         FAIR      84  25  11 W8        30.14F
RABBIT EARS PA FAIR      63  28  27 NW6G18    30.48S
STEAMBOAT SPGS FAIR      82  24  12 W15G25    30.17S
WALDEN         FAIR      77  18  10 W12       30.29R
$$

COZ006>008-011-200100-
...WEST CENTRAL VALLEYS...

CITY           SKY/WX    TMP DP  RH WIND       PRES   REMARKS
GRAND JUNCTION FAIR      92  33  12 W10       30.00F
MONTROSE       FAIR      87  31  13 NW8       30.10F
EAGLE          FAIR      84  33  16 SW20G25   30.17F
RIFLE          FAIR      86  34  15 SE7       30.09F
DELTA          FAIR      93  28   9 NW5       30.04F
NUCLA          FAIR      88  27  11 S14G22    30.13S
$$

COZ017>023-064>068-200100-
...SOUTHWEST COLORADO...

CITY           SKY/WX    TMP DP  RH WIND       PRES   REMARKS
DURANGO        FAIR      85  26  11 NW9       30.15F
CORTEZ         FAIR      90  25   9 W13G18    30.09F
PAGOSA SPRINGS FAIR      79  21  11 NW7       30.25F
TELLURIDE      FAIR      71  30  21 CALM      30.40S
WOLF CREEK PAS PTSUNNY   55  30  38 SW6       30.65S
$$

COZ009-010-012-014-032>034-037-058>063-200100-
...CENTRAL COLORADO...

CITY           SKY/WX    TMP DP  RH WIND       PRES   REMARKS
ASPEN          FAIR      76  33  21 N7        30.26F
BUENA VISTA    FAIR      79  25  13 NW12      30.25F
COPPER MTN     FAIR      61  27  27 NW16G28   30.62S
BERTHOUD PASS  FAIR      54  50  87 NW25G35   30.63S
COTTONWOOD PAS FAIR      70  19  14 W14G23    30.42F
GUNNISON       FAIR      78  35  21 NW9       30.24F
KREMMLING      FAIR      86  23  10 W12G17    30.22S
LEADVILLE      FAIR      67  25  20 W9        30.39F
SALIDA         FAIR      83  32  16 NE7       30.27F
SUNLIGHT       PTSUNNY   55  30  38 NW9G18    30.56S
WILKERSON PASS CLOUDY    59  25  27 NW5       30.56S
$$

COZ069>075-200100-
...SAN LUIS VALLEY/SANGRE DE CRISTO MOUNTAINS...

CITY           SKY/WX    TMP DP  RH WIND       PRES   REMARKS
ALAMOSA        FAIR      81  30  15 SW10      30.20F
DEL NORTE      FAIR      76  33  20 SW10      30.25F
LA VETA PASS   NOT AVBL
SAGUACHE       FAIR      81  32  17 N13       30.24S
$$

COZ035-036-038>040-200100-
...NORTHERN COLORADO FRONT RANGE...

CITY           SKY/WX    TMP DP  RH WIND       PRES   REMARKS
DENVER INTL AP PTSUNNY   89  30  12 W9        30.00R
DMNS CITY PARK   N/A     86  30  13 NE17G26   30.04R
AURORA         PTSUNNY   84  38  19 W23G39    30.04R
FRONT RANGE AP FAIR      88  36  15 S5        30.02R
ERIE MUNI ARPT FAIR      86  35  16 S5        30.04R
BOULDER MUN AP FAIR      88  37  16 SE6       29.99R
CENTENNIAL     PTSUNNY   85  31  14 W8        30.06R
BROOMFIELD     NOT AVBL
FORT COLLINS   FAIR      93  40  15 E9        29.97F HAZE
LONGMONT       FAIR      90  37  15 E6        29.99R
$$

COZ041-046-047-076>085-087-088-200100-
...PIKES PEAK/PALMER DIVIDE AND SOUTHERN FOOTHILLS...

CITY           SKY/WX    TMP DP  RH WIND       PRES   REMARKS
COLO. SPRINGS  PTSUNNY   82  40  22 N12       30.12R
A. F. ACADEMY  CLOUDY    76  39  26 N6        30.14R
SCHRIEVER AFB  FAIR      80  39  22 E3        30.11R
CHEYENNE MTN   PTSUNNY   78  38  24 NW13G20   30.12R
ELLICOTT       NOT AVBL
FALCON         PTSUNNY   73  39  29 N15G31    30.19R
FORT CARSON    FAIR      85  46  24 E7        30.06R
LIMON          FAIR      86  46  24 SE9       30.02S
MONUMENT HILL  FAIR      73  43  33 SW9       30.19S
CANON CITY     SUNNY     91  45  19 SE8       30.00F
WALSENBURG     FAIR      88  36  15 SE10G20   30.08S
TRINIDAD       FAIR      81  46  29 S10       30.08F
$$

COZ042>045-048>051-090-091-200100-
...NORTHEAST COLORADO...

CITY           SKY/WX    TMP DP  RH WIND       PRES   REMARKS
GREELEY ARPT   FAIR      95  49  20 S5        29.95F
AKRON          NOT AVBL
BURLINGTON     FAIR      91  55  29 SW10      29.94F
WRAY           NOT AVBL
YUMA           FAIR      88  52  29 SE6       29.91S
STERLING       FAIR      91  46  21 E6        29.89S
HOLYOKE        FAIR      95  55  26 E6        29.88F
FORT MORGAN    FAIR      92  31  11 W8        29.94S
$$

COZ086-089-092>099-200100-
...SOUTHEAST COLORADO...

CITY           SKY/WX    TMP DP  RH WIND       PRES   REMARKS
PUEBLO         FAIR      90  45  21 S16       29.96F
LA JUNTA       FAIR      88  52  29 S18G26    29.95S
LAMAR          FAIR      87  51  28 SW15      29.90F
SPRINGFIELD      N/A     72  58  61 S5        30.04F
$$



USA.gov is the U.S. government's official web portal to all federal, state and local government web resources and services.